| time (UTC) | temp F | wind direction | speed knots | gust knots | rain 1hr in | rain 24hr in | rain mn in | humidity % | barometer mb |
| 20260906073006 | 55 | 349 | 0.9 | 1.7 | 0.00 | 0.00 | 0.00 | 83 | 1010.9 |
| 20260906072506 | 55 | 236 | 0.0 | 1.7 | 0.00 | 0.00 | 0.00 | 82 | 1010.9 |
| 20260906072006 | 56 | 232 | 0.9 | 1.7 | 0.00 | 0.00 | 0.00 | 81 | 1011.1 |
| 20260906071506 | 56 | 312 | 0.9 | 1.7 | 0.00 | 0.00 | 0.00 | 82 | 1011.1 |
| 20260906071006 | 56 | 292 | 0.0 | 1.7 | 0.00 | 0.00 | 0.00 | 82 | 1011.2 |
| 20260906070006 | 56 | 285 | 0.9 | 2.6 | 0.00 | 0.00 | 0.00 | 81 | 1011.4 |
| 20260906065506 | 56 | 318 | 0.9 | 2.6 | 0.00 | 0.00 | 0.00 | 81 | 1011.4 |
| 20260906064506 | 56 | 315 | 0.9 | 2.6 | 0.00 | 0.00 | 0.00 | 81 | 1011.5 |
| 20260906064007 | 56 | 308 | 0.9 | 1.7 | 0.00 | 0.00 | 0.00 | 80 | 1011.5 |
| 20260906063507 | 57 | 318 | 0.9 | 1.7 | 0.00 | 0.00 | 0.00 | 78 | 1011.5 |
| 20260906063006 | 57 | 19 | 0.0 | 1.7 | 0.00 | 0.00 | 0.00 | 77 | 1011.5 |
| 20260906062006 | 57 | 19 | 0.9 | 1.7 | 0.00 | 0.00 | 0.00 | 76 | 1011.5 |
| 20260906061506 | 58 | 19 | 0.0 | 1.7 | 0.00 | 0.00 | 0.00 | 75 | 1011.4 |
| 20260906061007 | 58 | 19 | 0.9 | 1.7 | 0.00 | 0.00 | 0.00 | 75 | 1011.4 |
| 20260906060006 | 58 | 332 | 0.9 | 2.6 | 0.00 | 0.00 | 0.00 | 74 | 1011.4 |
| 20260906055506 | 59 | 301 | 1.7 | 2.6 | 0.00 | 0.00 | 0.00 | 73 | 1011.4 |
| 20260906055007 | 59 | 268 | 0.9 | 1.7 | 0.00 | 0.00 | 0.00 | 72 | 1011.5 |
| 20260906054007 | 59 | 268 | 0.9 | 5.2 | 0.00 | 0.00 | 0.00 | 72 | 1011.4 |
| 20260906053506 | 60 | 265 | 0.9 | 6.1 | 0.00 | 0.00 | 0.00 | 71 | 1011.4 |
| 20260906052506 | 60 | 273 | 3.5 | 8.7 | 0.00 | 0.00 | 0.00 | 71 | 1011.5 |
| 20260906052006 | 59 | 268 | 3.5 | 8.7 | 0.00 | 0.00 | 0.00 | 72 | 1011.6 |
| 20260906051506 | 59 | 288 | 1.7 | 6.1 | 0.00 | 0.00 | 0.00 | 73 | 1011.8 |
| 20260906045506 | 59 | 317 | 1.7 | 4.3 | 0.00 | 0.00 | 0.00 | 78 | 1011.6 |
| 20260906045006 | 59 | 321 | 1.7 | 4.3 | 0.00 | 0.00 | 0.00 | 78 | 1011.5 |
| 20260906044006 | 59 | 304 | 0.9 | 1.7 | 0.00 | 0.00 | 0.00 | 78 | 1011.6 |
| 20260906043506 | 59 | 328 | 0.0 | 2.6 | 0.00 | 0.00 | 0.00 | 78 | 1011.6 |
| 20260906042506 | 59 | 329 | 3.5 | 6.1 | 0.00 | 0.00 | 0.00 | 78 | 1011.7 |
| 20260906042007 | 59 | 304 | 3.5 | 6.1 | 0.00 | 0.00 | 0.00 | 78 | 1011.9 |
| 20260906040007 | 59 | 316 | 2.6 | 5.2 | 0.00 | 0.00 | 0.00 | 80 | 1012.1 |
| 20260906035006 | 59 | 310 | 1.7 | 5.2 | 0.00 | 0.00 | 0.00 | 79 | 1012.4 |
| 20260906034506 | 59 | 320 | 1.7 | 2.6 | 0.00 | 0.00 | 0.00 | 77 | 1012.4 |
| 20260906034006 | 60 | 321 | 0.9 | 2.6 | 0.00 | 0.00 | 0.00 | 76 | 1012.4 |
| 20260906033506 | 60 | 315 | 0.9 | 2.6 | 0.00 | 0.00 | 0.00 | 75 | 1012.4 |
| 20260906032506 | 60 | 7 | 1.7 | 2.6 | 0.00 | 0.00 | 0.00 | 75 | 1012.5 |
| 20260906031506 | 59 | 314 | 0.0 | 0.9 | 0.00 | 0.00 | 0.00 | 77 | 1012.6 |
| 20260906031006 | 59 | 352 | 0.0 | 0.9 | 0.00 | 0.00 | 0.00 | 78 | 1012.6 |
| 20260906030006 | 59 | 68 | 0.0 | 1.7 | 0.00 | 0.00 | 0.00 | 80 | 1012.9 |
| 20260906025506 | 58 | 331 | 0.0 | 2.6 | 0.00 | 0.00 | 0.00 | 81 | 1012.8 |
| 20260906025006 | 58 | 295 | 0.9 | 2.6 | 0.00 | 0.00 | 0.00 | 81 | 1012.9 |
| 20260906024506 | 58 | 288 | 0.9 | 2.6 | 0.00 | 0.00 | 0.00 | 82 | 1012.9 |
| 20260906024006 | 58 | 278 | 1.7 | 5.2 | 0.00 | 0.00 | 0.00 | 82 | 1013.0 |
| 20260906023507 | 58 | 316 | 1.7 | 5.2 | 0.00 | 0.00 | 0.00 | 82 | 1013.0 |
| 20260906023006 | 58 | 328 | 1.7 | 7.8 | 0.00 | 0.00 | 0.00 | 83 | 1013.1 |
| 20260906022506 | 58 | 316 | 2.6 | 7.8 | 0.00 | 0.00 | 0.00 | 81 | 1013.2 |
| 20260906022006 | 58 | 316 | 2.6 | 7.8 | 0.00 | 0.00 | 0.00 | 82 | 1013.1 |
| 20260906021505 | 58 | 307 | 4.3 | 7.0 | 0.00 | 0.00 | 0.00 | 82 | 1013.2 |
| 20260906020006 | 58 | 324 | 3.5 | 7.8 | 0.00 | 0.00 | 0.00 | 82 | 1013.3 |
| 20260906015007 | 58 | 319 | 2.6 | 7.8 | 0.00 | 0.00 | 0.00 | 81 | 1013.5 |
| 20260906014505 | 58 | 328 | 2.6 | 7.8 | 0.00 | 0.00 | 0.00 | 81 | 1013.5 |
| 20260906014006 | 58 | 316 | 2.6 | 7.8 | 0.00 | 0.00 | 0.00 | 81 | 1013.5 |
| 20260906013505 | 58 | 287 | 2.6 | 6.1 | 0.00 | 0.00 | 0.00 | 82 | 1013.5 |
| 20260906013006 | 58 | 328 | 1.7 | 6.1 | 0.00 | 0.00 | 0.00 | 82 | 1013.6 |
| 20260906012505 | 58 | 313 | 2.6 | 6.1 | 0.00 | 0.00 | 0.00 | 82 | 1013.6 |
| 20260906011506 | 57 | 318 | 1.7 | 6.1 | 0.00 | 0.00 | 0.00 | 84 | 1013.8 |
| 20260906010006 | 56 | 288 | 2.6 | 8.7 | 0.00 | 0.00 | 0.00 | 83 | 1014.3 |
| 20260906005506 | 57 | 300 | 3.5 | 10.4 | 0.00 | 0.00 | 0.00 | 80 | 1014.6 |
| 20260906005006 | 58 | 283 | 4.3 | 10.4 | 0.00 | 0.00 | 0.00 | 77 | 1014.6 |
| 20260906004506 | 59 | 275 | 2.6 | 10.4 | 0.00 | 0.00 | 0.00 | 74 | 1014.6 |
| 20260906003005 | 59 | 257 | 5.2 | 10.4 | 0.00 | 0.00 | 0.00 | 71 | 1014.7 |
| 20260906002506 | 60 | 304 | 3.5 | 10.4 | 0.00 | 0.00 | 0.00 | 71 | 1014.7 |
| 20260906002006 | 60 | 310 | 3.5 | 10.4 | 0.00 | 0.00 | 0.00 | 76 | 1014.9 |
| 20260906001507 | 60 | 306 | 5.2 | 10.4 | 0.00 | 0.00 | 0.00 | 77 | 1015.0 |
| 20260906001006 | 59 | 327 | 2.6 | 10.4 | 0.00 | 0.00 | 0.00 | 78 | 1015.0 |
| 20260906000005 | 60 | 339 | 4.3 | 10.4 | 0.00 | 0.00 | 0.00 | 75 | 1015.2 |
| 20260905235005 | 60 | 298 | 2.6 | 8.7 | 0.00 | 0.00 | 0.00 | 69 | 1015.2 |
| 20260905234006 | 60 | 290 | 3.5 | 11.3 | 0.00 | 0.00 | 0.00 | 69 | 1015.6 |
| 20260905233505 | 60 | 279 | 4.3 | 11.3 | 0.00 | 0.00 | 0.00 | 68 | 1015.7 |
| 20260905233006 | 60 | 274 | 3.5 | 11.3 | 0.00 | 0.00 | 0.00 | 69 | 1015.7 |
| 20260905232506 | 60 | 300 | 6.1 | 10.4 | 0.00 | 0.00 | 0.00 | 68 | 1015.9 |
| 20260905231505 | 60 | 265 | 3.5 | 8.7 | 0.00 | 0.00 | 0.00 | 74 | 1016.2 |
| 20260905231005 | 60 | 295 | 1.7 | 7.0 | 0.00 | 0.00 | 0.00 | 77 | 1016.2 |
| 20260905230007 | 59 | 355 | 2.6 | 6.1 | 0.00 | 0.00 | 0.00 | 78 | 1016.4 |
| 20260905225006 | 58 | 321 | 4.3 | 8.7 | 0.00 | 0.00 | 0.00 | 79 | 1016.6 |
| 20260905224507 | 58 | 312 | 3.5 | 7.8 | 0.00 | 0.00 | 0.00 | 77 | 1016.7 |
| 20260905224006 | 59 | 332 | 2.6 | 6.1 | 0.00 | 0.00 | 0.00 | 78 | 1016.7 |
| 20260905223505 | 58 | 301 | 4.3 | 7.0 | 0.00 | 0.00 | 0.00 | 78 | 1016.7 |
| 20260905223005 | 58 | 290 | 2.6 | 8.7 | 0.00 | 0.00 | 0.00 | 77 | 1016.7 |
| 20260905222505 | 58 | 279 | 4.3 | 8.7 | 0.00 | 0.00 | 0.00 | 78 | 1016.8 |
| 20260905222005 | 58 | 288 | 1.7 | 10.4 | 0.00 | 0.00 | 0.00 | 79 | 1016.8 |
| 20260905221505 | 57 | 276 | 2.6 | 10.4 | 0.00 | 0.00 | 0.00 | 79 | 1016.8 |
| 20260905221006 | 57 | 284 | 2.6 | 7.8 | 0.00 | 0.00 | 0.00 | 78 | 1017.0 |
| 20260905220005 | 57 | 291 | 3.5 | 8.7 | 0.00 | 0.00 | 0.00 | 78 | 1017.2 |
| 20260905215505 | 58 | 279 | 2.6 | 6.1 | 0.00 | 0.00 | 0.00 | 78 | 1017.2 |
| 20260905215006 | 57 | 291 | 1.7 | 7.8 | 0.00 | 0.00 | 0.00 | 79 | 1017.2 |
| 20260905214505 | 57 | 329 | 2.6 | 7.8 | 0.00 | 0.00 | 0.00 | 79 | 1017.3 |
| 20260905214006 | 57 | 301 | 2.6 | 4.3 | 0.00 | 0.00 | 0.00 | 78 | 1017.3 |
| 20260905213506 | 57 | 0 | 1.7 | 7.8 | 0.00 | 0.00 | 0.00 | 78 | 1017.4 |
| 20260905213006 | 57 | 295 | 1.7 | 7.8 | 0.00 | 0.00 | 0.00 | 79 | 1017.5 |
| 20260905212006 | 57 | 267 | 2.6 | 7.0 | 0.00 | 0.00 | 0.00 | 79 | 1017.5 |
| 20260905211506 | 57 | 296 | 3.5 | 8.7 | 0.00 | 0.00 | 0.00 | 79 | 1017.5 |
| 20260905210006 | 56 | 278 | 1.7 | 10.4 | 0.00 | 0.00 | 0.00 | 82 | 1017.4 |
| 20260905205506 | 56 | 312 | 4.3 | 10.4 | 0.00 | 0.00 | 0.00 | 81 | 1017.4 |
| 20260905205005 | 55 | 301 | 2.6 | 4.3 | 0.00 | 0.00 | 0.00 | 83 | 1017.4 |
| 20260905204505 | 55 | 280 | 1.7 | 4.3 | 0.00 | 0.00 | 0.00 | 83 | 1017.5 |
| 20260905204006 | 55 | 303 | 1.7 | 4.3 | 0.00 | 0.00 | 0.00 | 83 | 1017.6 |
| 20260905203506 | 54 | 281 | 1.7 | 6.1 | 0.00 | 0.00 | 0.00 | 84 | 1017.5 |
| 20260905203006 | 54 | 285 | 2.6 | 6.1 | 0.00 | 0.00 | 0.00 | 83 | 1017.5 |
| 20260905202505 | 54 | 295 | 1.7 | 5.2 | 0.00 | 0.00 | 0.00 | 84 | 1017.5 |
| 20260905202005 | 53 | 281 | 1.7 | 4.3 | 0.00 | 0.00 | 0.00 | 85 | 1017.5 |
| 20260905201505 | 53 | 279 | 2.6 | 4.3 | 0.00 | 0.00 | 0.00 | 85 | 1017.4 |
| 20260905200005 | 52 | 313 | 1.7 | 2.6 | 0.00 | 0.00 | 0.00 | 85 | 1017.4 |
| 20260905195506 | 52 | 302 | 0.0 | 1.7 | 0.00 | 0.00 | 0.00 | 85 | 1017.4 |
| 20260905195005 | 52 | 303 | 0.9 | 2.6 | 0.00 | 0.00 | 0.00 | 86 | 1017.4 |
| 20260905194506 | 51 | 276 | 0.9 | 4.3 | 0.00 | 0.00 | 0.00 | 85 | 1017.3 |
| 20260905194006 | 51 | 308 | 1.7 | 4.3 | 0.00 | 0.00 | 0.00 | 85 | 1017.2 |
| 20260905193005 | 51 | 286 | 0.9 | 2.6 | 0.00 | 0.00 | 0.00 | 86 | 1017.2 |
| 20260905192505 | 51 | 274 | 1.7 | 4.3 | 0.00 | 0.00 | 0.00 | 85 | 1017.2 |
| 20260905192006 | 51 | 265 | 1.7 | 5.2 | 0.00 | 0.00 | 0.00 | 86 | 1017.2 |
| 20260905191505 | 51 | 278 | 2.6 | 5.2 | 0.00 | 0.00 | 0.00 | 86 | 1017.1 |
| 20260905191005 | 51 | 266 | 3.5 | 5.2 | 0.00 | 0.00 | 0.00 | 86 | 1017.0 |
| 20260905190005 | 49 | 252 | 2.6 | 4.3 | 0.00 | 0.00 | 0.00 | 90 | 1017.0 |
| 20260905185505 | 48 | 256 | 2.6 | 2.6 | 0.00 | 0.00 | 0.00 | 91 | 1017.2 |
| 20260905185006 | 47 | 259 | 1.7 | 2.6 | 0.00 | 0.00 | 0.00 | 90 | 1017.2 |
| 20260905184506 | 47 | 202 | 0.9 | 1.7 | 0.00 | 0.00 | 0.00 | 90 | 1017.2 |
| 20260905184006 | 47 | 304 | 0.9 | 1.7 | 0.00 | 0.00 | 0.00 | 89 | 1017.1 |
| 20260905183506 | 47 | 304 | 0.9 | 1.7 | 0.00 | 0.00 | 0.00 | 88 | 1016.9 |
| 20260905183006 | 47 | 0 | 0.9 | 1.7 | 0.00 | 0.00 | 0.00 | 88 | 1016.8 |
| 20260905182506 | 48 | 29 | 0.9 | 2.6 | 0.00 | 0.00 | 0.00 | 87 | 1016.8 |
| 20260905182005 | 48 | 74 | 0.9 | 2.6 | 0.00 | 0.00 | 0.00 | 86 | 1016.8 |
| 20260905181506 | 49 | 74 | 1.7 | 4.3 | 0.00 | 0.00 | 0.00 | 84 | 1016.8 |
| 20260905180006 | 50 | 165 | 1.7 | 5.2 | 0.00 | 0.00 | 0.00 | 87 | 1016.6 |
| 20260905175505 | 50 | 169 | 1.7 | 4.3 | 0.00 | 0.00 | 0.00 | 87 | 1016.5 |
| 20260905174005 | 48 | 229 | 2.6 | 6.1 | 0.00 | 0.00 | 0.00 | 91 | 1016.2 |
| 20260905173505 | 47 | 222 | 1.7 | 4.3 | 0.00 | 0.00 | 0.00 | 91 | 1016.3 |
| 20260905173006 | 46 | 169 | 1.7 | 2.6 | 0.00 | 0.00 | 0.00 | 89 | 1016.5 |
| 20260905172005 | 47 | 144 | 0.9 | 2.6 | 0.00 | 0.00 | 0.00 | 88 | 1016.7 |
| 20260905171506 | 47 | 154 | 1.7 | 2.6 | 0.00 | 0.00 | 0.00 | 88 | 1016.7 |
| 20260905171006 | 48 | 165 | 0.9 | 2.6 | 0.00 | 0.00 | 0.00 | 87 | 1016.7 |
| 20260905170005 | 49 | 311 | 0.0 | 1.7 | 0.00 | 0.00 | 0.00 | 86 | 1016.6 |
| 20260905165505 | 49 | 317 | 0.9 | 1.7 | 0.00 | 0.00 | 0.00 | 86 | 1016.7 |
| 20260905164505 | 50 | 310 | 0.9 | 2.6 | 0.00 | 0.00 | 0.00 | 86 | 1016.7 |
| 20260905164005 | 50 | 184 | 0.9 | 2.6 | 0.00 | 0.00 | 0.00 | 86 | 1016.8 |
| 20260905163505 | 50 | 183 | 0.9 | 2.6 | 0.00 | 0.00 | 0.00 | 86 | 1016.9 |
| 20260905162505 | 49 | 250 | 0.9 | 2.6 | 0.00 | 0.00 | 0.00 | 87 | 1016.7 |
| 20260905162006 | 49 | 172 | 0.9 | 2.6 | 0.00 | 0.00 | 0.00 | 87 | 1016.7 |
| 20260905161005 | 49 | 180 | 0.9 | 1.7 | 0.00 | 0.00 | 0.00 | 86 | 1016.7 |
| 20260905160005 | 49 | 223 | 0.9 | 2.6 | 0.00 | 0.00 | 0.00 | 86 | 1016.7 |
| 20260905155505 | 49 | 156 | 0.9 | 2.6 | 0.00 | 0.00 | 0.00 | 86 | 1016.7 |
| 20260905155005 | 49 | 171 | 1.7 | 2.6 | 0.00 | 0.00 | 0.00 | 87 | 1016.8 |
| 20260905154505 | 49 | 221 | 0.9 | 2.6 | 0.00 | 0.00 | 0.00 | 86 | 1016.8 |
| 20260905154005 | 49 | 194 | 0.9 | 2.6 | 0.00 | 0.00 | 0.00 | 87 | 1016.7 |
| 20260905153505 | 49 | 170 | 0.9 | 2.6 | 0.00 | 0.00 | 0.00 | 87 | 1016.7 |
| 20260905153006 | 49 | 186 | 0.9 | 2.6 | 0.00 | 0.00 | 0.00 | 87 | 1016.7 |
| 20260905152505 | 49 | 173 | 0.9 | 2.6 | 0.00 | 0.00 | 0.00 | 87 | 1016.7 |
| 20260905151505 | 49 | 210 | 1.7 | 2.6 | 0.00 | 0.00 | 0.00 | 86 | 1016.7 |
| 20260905150005 | 49 | 232 | 0.9 | 2.6 | 0.00 | 0.00 | 0.00 | 85 | 1016.6 |
| 20260905145005 | 50 | 267 | 3.5 | 7.8 | 0.00 | 0.00 | 0.00 | 85 | 1016.6 |
| 20260905144505 | 50 | 272 | 3.5 | 8.7 | 0.00 | 0.00 | 0.00 | 85 | 1016.6 |
| 20260905144005 | 50 | 252 | 3.5 | 8.7 | 0.00 | 0.00 | 0.00 | 85 | 1016.6 |
| 20260905143505 | 49 | 252 | 2.6 | 5.2 | 0.00 | 0.00 | 0.00 | 85 | 1016.8 |
| 20260905143005 | 49 | 268 | 3.5 | 5.2 | 0.00 | 0.00 | 0.00 | 85 | 1016.9 |
| 20260905142505 | 49 | 257 | 2.6 | 5.2 | 0.00 | 0.00 | 0.00 | 85 | 1017.0 |
| 20260905142005 | 49 | 210 | 2.6 | 7.0 | 0.00 | 0.00 | 0.00 | 85 | 1017.1 |
| 20260905141505 | 49 | 257 | 2.6 | 7.8 | 0.00 | 0.00 | 0.00 | 85 | 1017.2 |
| 20260905141007 | 49 | 245 | 3.5 | 7.8 | 0.00 | 0.00 | 0.00 | 86 | 1017.3 |
| 20260905140005 | 48 | 250 | 2.6 | 5.2 | 0.00 | 0.00 | 0.00 | 86 | 1017.5 |
| 20260905135505 | 48 | 274 | 0.9 | 2.6 | 0.00 | 0.00 | 0.00 | 86 | 1017.6 |
| 20260905135005 | 48 | 261 | 1.7 | 2.6 | 0.00 | 0.00 | 0.00 | 86 | 1017.7 |
| 20260905134505 | 48 | 261 | 1.7 | 2.6 | 0.00 | 0.00 | 0.00 | 86 | 1017.7 |
| 20260905134005 | 48 | 261 | 1.7 | 2.6 | 0.00 | 0.00 | 0.00 | 86 | 1017.8 |
| 20260905133505 | 48 | 238 | 1.7 | 2.6 | 0.00 | 0.00 | 0.00 | 86 | 1017.8 |
| 20260905133005 | 48 | 260 | 1.7 | 2.6 | 0.00 | 0.00 | 0.00 | 86 | 1017.9 |
| 20260905132505 | 48 | 270 | 0.9 | 2.6 | 0.00 | 0.00 | 0.00 | 86 | 1017.9 |
| 20260905132005 | 48 | 283 | 0.0 | 6.1 | 0.00 | 0.00 | 0.00 | 86 | 1018.0 |
| 20260905131505 | 48 | 254 | 1.7 | 6.1 | 0.00 | 0.00 | 0.00 | 87 | 1018.2 |
| 20260905131005 | 47 | 219 | 1.7 | 4.3 | 0.00 | 0.00 | 0.00 | 88 | 1018.2 |
| 20260905130005 | 46 | 194 | 1.7 | 4.3 | 0.00 | 0.00 | 0.00 | 89 | 1018.1 |
| 20260905125506 | 45 | 187 | 1.7 | 4.3 | 0.00 | 0.00 | 0.00 | 91 | 1018.1 |
| 20260905125005 | 44 | 208 | 1.7 | 2.6 | 0.00 | 0.00 | 0.00 | 89 | 1018.2 |
| 20260905124505 | 45 | 183 | 0.9 | 2.6 | 0.00 | 0.00 | 0.00 | 89 | 1018.2 |
| 20260905124005 | 45 | 173 | 0.0 | 2.6 | 0.00 | 0.00 | 0.00 | 89 | 1018.3 |
| 20260905123005 | 44 | 159 | 0.9 | 2.6 | 0.00 | 0.00 | 0.00 | 87 | 1018.4 |
| 20260905122505 | 45 | 159 | 1.7 | 2.6 | 0.00 | 0.00 | 0.00 | 86 | 1018.3 |
| 20260905122004 | 46 | 173 | 0.9 | 1.7 | 0.00 | 0.00 | 0.00 | 87 | 1018.3 |
| 20260905121505 | 46 | 173 | 0.9 | 1.7 | 0.00 | 0.00 | 0.00 | 88 | 1018.3 |
| 20260905121005 | 46 | 174 | 0.9 | 2.6 | 0.00 | 0.00 | 0.00 | 88 | 1018.4 |
| 20260905120005 | 45 | 187 | 0.9 | 1.7 | 0.00 | 0.00 | 0.00 | 89 | 1018.3 |
| 20260905115505 | 45 | 173 | 0.9 | 1.7 | 0.00 | 0.00 | 0.00 | 89 | 1018.3 |
| 20260905115004 | 45 | 112 | 0.9 | 2.6 | 0.00 | 0.00 | 0.00 | 87 | 1018.4 |
| 20260905114507 | 45 | 112 | 1.7 | 2.6 | 0.00 | 0.00 | 0.00 | 87 | 1018.6 |
| 20260905113005 | 46 | 310 | 0.9 | 1.7 | 0.00 | 0.00 | 0.00 | 88 | 1018.3 |
| 20260905112504 | 46 | 326 | 0.9 | 1.7 | 0.00 | 0.00 | 0.00 | 88 | 1018.1 |
| 20260905112005 | 46 | 283 | 0.0 | 0.0 | 0.00 | 0.00 | 0.00 | 87 | 1018.0 |
| 20260905111005 | 46 | 157 | 0.0 | 0.0 | 0.00 | 0.00 | 0.00 | 86 | 1018.3 |
| 20260905110004 | 46 | 157 | 0.0 | 0.0 | 0.00 | 0.00 | 0.00 | 87 | 1018.3 |
| 20260905105504 | 46 | 157 | 0.0 | 0.9 | 0.00 | 0.00 | 0.00 | 86 | 1018.3 |
| 20260905104505 | 47 | 156 | 0.9 | 1.7 | 0.00 | 0.00 | 0.00 | 85 | 1018.3 |
| 20260905104004 | 47 | 157 | 0.9 | 1.7 | 0.00 | 0.00 | 0.00 | 85 | 1018.4 |
| 20260905103505 | 47 | 157 | 0.9 | 1.7 | 0.00 | 0.00 | 0.00 | 87 | 1018.4 |
| 20260905102505 | 48 | 157 | 0.9 | 2.6 | 0.00 | 0.00 | 0.00 | 83 | 1018.6 |
| 20260905101505 | 49 | 327 | 0.9 | 1.7 | 0.00 | 0.00 | 0.00 | 82 | 1018.3 |
| 20260905101005 | 49 | 303 | 0.9 | 2.6 | 0.00 | 0.00 | 0.00 | 82 | 1018.5 |
| 20260905100005 | 49 | 271 | 0.9 | 2.6 | 0.00 | 0.00 | 0.00 | 81 | 1018.4 |
| 20260905095505 | 50 | 305 | 1.7 | 4.3 | 0.00 | 0.00 | 0.00 | 81 | 1018.4 |
| 20260905095005 | 50 | 293 | 0.9 | 4.3 | 0.00 | 0.00 | 0.00 | 80 | 1018.5 |
| 20260905094004 | 50 | 315 | 0.9 | 4.3 | 0.00 | 0.00 | 0.00 | 79 | 1018.6 |
| 20260905093505 | 50 | 286 | 1.7 | 4.3 | 0.00 | 0.00 | 0.00 | 80 | 1018.6 |
| 20260905092505 | 50 | 285 | 0.9 | 4.3 | 0.00 | 0.00 | 0.00 | 79 | 1018.3 |
| 20260905092005 | 50 | 285 | 1.7 | 4.3 | 0.00 | 0.00 | 0.00 | 79 | 1018.2 |
| 20260905091505 | 51 | 293 | 1.7 | 2.6 | 0.00 | 0.00 | 0.00 | 78 | 1018.3 |
| 20260905091006 | 51 | 296 | 0.9 | 2.6 | 0.00 | 0.00 | 0.00 | 77 | 1018.5 |
| 20260905090005 | 52 | 320 | 0.9 | 2.6 | 0.00 | 0.00 | 0.00 | 76 | 1018.6 |
| 20260905085504 | 52 | 280 | 0.9 | 2.6 | 0.00 | 0.00 | 0.00 | 75 | 1018.5 |
| 20260905085004 | 52 | 291 | 0.9 | 5.2 | 0.00 | 0.00 | 0.00 | 75 | 1018.4 |
| 20260905084504 | 52 | 272 | 1.7 | 5.2 | 0.00 | 0.00 | 0.00 | 74 | 1018.3 |
| 20260905084004 | 53 | 276 | 2.6 | 7.8 | 0.00 | 0.00 | 0.00 | 74 | 1018.2 |
| 20260905083504 | 53 | 255 | 3.5 | 10.4 | 0.00 | 0.00 | 0.00 | 73 | 1018.0 |
| 20260905083004 | 53 | 261 | 4.3 | 10.4 | 0.00 | 0.00 | 0.00 | 73 | 1017.9 |
| 20260905082507 | 54 | 262 | 6.1 | 10.4 | 0.00 | 0.00 | 0.00 | 72 | 1017.8 |
| 20260905082006 | 54 | 250 | 5.2 | 7.8 | 0.00 | 0.00 | 0.00 | 72 | 1017.8 |
| 20260905081006 | 54 | 256 | 3.5 | 6.1 | 0.00 | 0.00 | 0.00 | 71 | 1017.8 |
| 20260905075507 | 54 | 271 | 4.3 | 7.8 | 0.00 | 0.00 | 0.00 | 70 | 1017.7 |
| 20260905075006 | 54 | 265 | 4.3 | 5.2 | 0.00 | 0.00 | 0.00 | 71 | 1017.6 |
| 20260905074506 | 54 | 274 | 0.9 | 6.1 | 0.00 | 0.00 | 0.00 | 70 | 1017.4 |
| 20260905073507 | 54 | 269 | 1.7 | 5.2 | 0.00 | 0.00 | 0.00 | 71 | 1017.2 |